Regional Weather Roundup
Issued by NWS

Home | Current Version | Previous Version | Text Only | Print | Product List | Glossary On
Versions: 1 2 3 4 5 6 7 8 9 10 11 12 13 14 15 16 17 18 19 20 21 22 23 24 25 26 27 28 29 30 31 32 33 34 35 36 37 38 39 40 41 42 43 44 45 46 47 48 49 50
000
ASUS43 KTOP 310308
RWRKS

WEATHER ROUNDUP FOR KANSAS
NATIONAL WEATHER SERVICE GOODLAND KS
1000 PM CDT MON MAR 30 2015

NOTE:  "FAIR" INDICATES FEW OR NO CLOUDS BELOW 12,000 FEET WITH NO
SIGNIFICANT WEATHER AND/OR OBSTRUCTIONS TO VISIBILITY.

KSZ001>006-013>018-027>032-041>047-310400-
NORTHWEST KANSAS

CITY           SKY/WX    TMP DP  RH WIND       PRES   REMARKS
GOODLAND       CLEAR     51  20  29 CALM      30.05R
HAYS           CLEAR     63  21  20 N14       29.97S
HILL CITY      CLEAR     52  22  30 CALM      29.99R
RUSSELL        CLEAR     64  26  23 N14       29.95R
$$

KSZ061>065-074>080-084>089-310400-
SOUTHWEST KANSAS

CITY           SKY/WX    TMP DP  RH WIND       PRES   REMARKS
DODGE CITY     MOCLDY    65  24  21 NE5       30.00R
ELKHART          N/A     63  29  27 NE6         N/A
GARDEN CITY    CLOUDY    60  24  25 NE9       30.00R
GREAT BEND     CLEAR     55  28  35 N6        29.95R
LIBERAL        CLOUDY    64  30  27 NE9       30.01R
PRATT          PTCLDY    63  36  36 S14       29.97R
$$

KSZ066>073-081>083-090>101-310400-
SOUTHEAST KANSAS

CITY           SKY/WX    TMP DP  RH WIND       PRES   REMARKS
CHANUTE        CLEAR     55  39  54 S8        29.99F
COFFEYVILLE    CLEAR     60  41  49 S6        30.00S HAZE
HUTCHINSON     PTCLDY    64  40  41 S9        29.94R
MEDICINE LODGE   N/A     66  41  40 S8        29.96R
NEWTON         PTCLDY    57  36  44 S7        29.97R
PARSONS        CLEAR     58  40  51 SE3       30.01S
WICHITA INTL   MOCLDY    63  38  39 S13       29.95R
WICHITA JABRA  MOCLDY    64  39  39 S10       29.95S
WICHITA MCCONL MOCLDY    65  40  40 S14       29.95S
WINFIELD       PTCLDY    55  41  59 S9        29.98F
$$

KSZ007>012-019>026-033>040-048>060-102>105-310400-
NORTHEAST KANSAS

CITY           SKY/WX    TMP DP  RH WIND       PRES   REMARKS
CONCORDIA      CLEAR     65  39  38 CALM      29.96R
EMPORIA        PTCLDY    58  37  45 S7        29.96S HAZE
LAWRENCE       CLEAR     53  35  50 SE5       29.96S
MANHATTAN      CLEAR     57  40  52 CALM      29.95R
MARYSVILLE     CLEAR     63  37  39 W3        29.96R
OLATHE IND     CLEAR     50  35  56 S8        29.98F
OLATHE EXE     CLEAR     58  34  40 S6        29.97S
SALINA         CLEAR     62  39  42 SE6       29.94R
TOPEKA BILLARD CLEAR     62  35  36 S6        29.96R
TOPEKA FORBES  FAIR      62  35  36 S10       29.96R
$$



USA.gov is the U.S. government's official web portal to all federal, state and local government web resources and services.